Flag for Brazil Weather past 2 weeks in Rio Grande, Rio Grande do Sul, Brazil

Now
77 °F

Partly sunny.


Feels Like: 79 °F
Forecast: 71 / 77 °F
Wind: 12 mph from South

Location: Pelotas Airport

Current Time: Jan 29, 2015 at 12:55:40 PM

Latest Report: Jan 29, 2015 at 12:00 PM


Visibility: N/A

Pressure: 29.89 "Hg

Humidity: 74%

Dew point: 68 °F

Location of Rio GrandeLocation

Historic Weather in Rio Grande — Graph

°F

Rio Grande temperature yesterday

Maximum temperature yesterday: 95 °F (at 3:00 PM)
Minimum temperature yesterday: 32 °F (at 5:00 PM)
Average temperature yesterday: 79 °F

Past Weeks' High & Low Weather Summary

 TemperatureHumidityPressure
High95 °F (Jan 28, 3:00 PM)100% (Jan 14, 9:00 PM)30.21 "Hg (Jan 14, 9:00 PM)
Low32 °F (Jan 28, 5:00 PM)45% (Jan 21, 12:00 PM)29.68 "Hg (Jan 28, 4:00 PM)
Average76 °F84%29.95 "Hg
* Reported Jan 14 12:00 Noon — Jan 29 12:00 Noon, Rio Grande, Weather by CustomWeather, © 2014

Note: Actual official high and low records may vary slightly from our data, if they occured in-between our weather recording intervals... More about our weather records

Advertising

Rio Grande weather history for previous 24 hours

 ConditionsComfort  
Time TempWeatherWind HumidityBarometerVisibility
12:00 PM
Jan 29
77 °FPartly sunny.12 mph74%29.89 "HgN/A
11:00 AM73 °FOvercast.8 mph89%29.89 "HgN/A
10:00 AM68 °FFog.9 mph100%29.86 "Hg3 mi
9:00 AM66 °FLight rain. Mostly cloudy.16 mph100%29.86 "Hg2 mi
8:00 AM70 °FLight rain. Fog.14 mph100%29.80 "Hg2 mi
7:00 AM70 °FLight rain. Overcast.17 mph100%29.74 "Hg5 mi
6:00 AM73 °FPassing clouds.7 mph100%29.71 "Hg5 mi
5:00 AM73 °FPassing clouds.7 mph100%29.68 "Hg5 mi
4:00 AM72 °FPassing clouds.5 mph100%29.68 "Hg5 mi
3:00 AM73 °FLow clouds.6 mph100%29.68 "Hg5 mi
2:00 AM73 °FLight rain. Low clouds.5 mph100%29.68 "Hg5 mi
1:00 AM72 °FLight rain. Mostly cloudy.9 mph100%29.71 "HgN/A
12:00 AM73 °FLight rain. Mostly cloudy.3 mph100%29.74 "HgN/A
11:00 PM
Jan 28
73 °FMostly cloudy.6 mph100%29.77 "HgN/A
10:00 PM73 °FThunderstorms. Mostly cloudy.8 mph100%N/A3 mi
9:00 PM75 °FMostly cloudy.14 mph100%29.71 "HgN/A
8:00 PM79 °FThunderstorms. More clouds than sun.3 mph94%29.68 "HgN/A
7:00 PM81 °FOvercast.2 mph89%29.68 "HgN/A
6:00 PM84 °FScattered clouds.9 mph79%29.68 "HgN/A
5:00 PM32 °FThunderstorms. Broken clouds.13 mph100%29.68 "HgN/A
4:00 PM90 °FBroken clouds.3 mph63%29.68 "HgN/A
3:00 PM95 °FPartly sunny.7 mph50%29.71 "HgN/A
2:00 PM91 °FScattered clouds.5 mph63%29.74 "HgN/A
1:00 PM91 °FPassing clouds.7 mph63%29.77 "HgN/A
12:00 PM91 °FSunny.7 mph59%29.77 "Hg10 mi
Weather by CustomWeather, © 2014

See weather overviewHow to use our weather pages